{"data":{"norad_id":68318,"intl_designator":"2026-057AA","name":"STARLINK-37113","alt_names":[],"object_type":"PAYLOAD","status":"ACTIVE","operator":null,"country":"US","launch_date":"2026-03-20","launch_site_code":"AFWTR","launch_vehicle":null,"mission":null,"orbit_class":"UNKNOWN","rcs_meters":null,"size_class":null,"mass_kg":null,"dimensions":null,"purposes":["comms"],"wikipedia_slug":null,"has_3d_model":false,"image_url":null,"decayed_at":null,"tle_current":{"epoch":"2026-09-19T14:52:38.775936Z","epoch_age_seconds":124518,"freshness":"FRESH","line1":"1 68318U 26057AA  26262.61989324  .00020104  00000+0  62359-3 0  9990","line2":"2 68318  97.2848  27.9536 0001240  90.7139 269.4246 15.33434670 28373","mean_motion":15.3343467,"eccentricity":0.000124,"inclination_deg":97.2848,"raan_deg":27.9536,"arg_perigee_deg":90.7139,"mean_anomaly_deg":269.4246,"bstar":0.00062359,"rev_number":2837,"period_min":93.906837257045,"perigee_km":464.72528931012,"apogee_km":466.42252961567,"semimajor_km":6843.7109094629,"source":"CELESTRAK","updated_at":"2026-09-20T09:00:43.882124Z"}}}